Time,TemperatureF,DewpointF,PressureIn,WindDirection,WindDirectionDegrees,WindSpeedMPH,WindSpeedGustMPH,Humidity,HourlyPrecipIn,Conditions,Clouds,dailyrainin,SoftwareType,DateUTC
2013-03-17 00:03:00,13.0,5.1,30.29,NNW,330,0.0,4.0,70,0.00,,,0.00,VWS V14.01,2013-03-17 05:03:00,
2013-03-17 00:08:00,13.0,5.1,30.29,NW,323,2.0,4.0,70,0.00,,,0.00,VWS V14.01,2013-03-17 05:08:00,
2013-03-17 00:13:00,12.9,5.0,30.30,NNW,327,2.0,4.0,70,0.00,,,0.00,VWS V14.01,2013-03-17 05:13:00,
2013-03-17 00:18:00,12.8,4.9,30.30,NNW,327,0.0,4.0,70,0.00,,,0.00,VWS V14.01,2013-03-17 05:18:00,
2013-03-17 00:23:00,12.7,4.5,30.30,WNW,294,1.0,5.0,69,0.00,,,0.00,VWS V14.01,2013-03-17 05:23:00,
2013-03-17 00:28:00,12.6,4.4,30.30,NW,311,0.0,5.0,69,0.00,,,0.00,VWS V14.01,2013-03-17 05:28:00,
2013-03-17 00:33:00,12.5,4.3,30.30,NW,308,1.0,4.0,69,0.00,,,0.00,VWS V14.01,2013-03-17 05:33:00,
2013-03-17 00:38:00,12.5,4.3,30.30,NW,307,3.0,4.0,69,0.00,,,0.00,VWS V14.01,2013-03-17 05:38:00,
2013-03-17 00:44:00,12.4,3.9,30.31,WNW,295,2.0,5.0,68,0.00,,,0.00,VWS V14.01,2013-03-17 05:44:00,
2013-03-17 00:49:00,12.3,3.8,30.31,WNW,295,0.0,5.0,68,0.00,,,0.00,VWS V14.01,2013-03-17 05:49:00,
2013-03-17 00:54:00,12.1,3.6,30.31,WNW,293,0.0,5.0,68,0.00,,,0.00,VWS V14.01,2013-03-17 05:54:00,
2013-03-17 00:59:00,12.0,3.5,30.31,NNW,345,0.0,6.0,68,0.00,,,0.00,VWS V14.01,2013-03-17 05:59:00,
2013-03-17 01:04:00,11.9,3.1,30.31,NNW,328,0.0,3.0,67,0.00,,,0.00,VWS V14.01,2013-03-17 06:04:00,
2013-03-17 01:09:00,11.8,3.3,30.31,NNW,328,0.0,3.0,68,0.00,,,0.00,VWS V14.01,2013-03-17 06:09:00,
2013-03-17 01:14:00,11.8,3.3,30.31,NNW,328,0.0,3.0,68,0.00,,,0.00,VWS V14.01,2013-03-17 06:14:00,
2013-03-17 01:19:00,11.8,3.3,30.31,NNW,328,0.0,3.0,68,0.00,,,0.00,VWS V14.01,2013-03-17 06:19:00,
2013-03-17 01:24:00,11.6,3.1,30.31,NNW,328,0.0,3.0,68,0.00,,,0.00,VWS V14.01,2013-03-17 06:24:00,
2013-03-17 01:29:00,11.3,2.8,30.31,NNW,330,0.0,3.0,68,0.00,,,0.00,VWS V14.01,2013-03-17 06:29:00,
2013-03-17 01:34:00,11.1,2.6,30.31,NNW,330,0.0,0.0,68,0.00,,,0.00,VWS V14.01,2013-03-17 06:34:00,
2013-03-17 01:39:00,10.9,2.7,30.31,NNW,330,0.0,0.0,69,0.00,,,0.00,VWS V14.01,2013-03-17 06:39:00,
2013-03-17 01:44:00,10.8,2.3,30.32,NNW,330,0.0,0.0,68,0.00,,,0.00,VWS V14.01,2013-03-17 06:44:00,
2013-03-17 01:50:00,10.8,2.6,30.32,NNW,330,0.0,0.0,69,0.00,,,0.00,VWS V14.01,2013-03-17 06:50:00,
2013-03-17 01:55:00,10.7,2.5,30.31,NNW,330,0.0,3.0,69,0.00,,,0.00,VWS V14.01,2013-03-17 06:55:00,
2013-03-17 02:00:00,10.7,2.5,30.32,NNW,330,0.0,3.0,69,0.00,,,0.00,VWS V14.01,2013-03-17 07:00:00,
2013-03-17 02:05:00,10.7,2.5,30.32,NNW,330,0.0,3.0,69,0.00,,,0.00,VWS V14.01,2013-03-17 07:05:00,
2013-03-17 02:10:00,10.7,2.5,30.32,NNW,328,2.0,3.0,69,0.00,,,0.00,VWS V14.01,2013-03-17 07:10:00,
2013-03-17 02:15:00,10.6,2.5,30.32,NNW,328,0.0,4.0,69,0.00,,,0.00,VWS V14.01,2013-03-17 07:15:00,
2013-03-17 02:20:00,10.5,2.4,30.32,NNW,328,0.0,4.0,69,0.00,,,0.00,VWS V14.01,2013-03-17 07:20:00,
2013-03-17 02:25:00,10.3,2.5,30.32,NNW,328,0.0,4.0,70,0.00,,,0.00,VWS V14.01,2013-03-17 07:25:00,
2013-03-17 02:30:00,10.3,2.5,30.32,NNW,328,0.0,4.0,70,0.00,,,0.00,VWS V14.01,2013-03-17 07:30:00,
2013-03-17 02:35:00,10.1,2.3,30.32,NNW,328,0.0,0.0,70,0.00,,,0.00,VWS V14.01,2013-03-17 07:35:00,
2013-03-17 02:40:00,10.1,2.3,30.32,NNW,328,0.0,0.0,70,0.00,,,0.00,VWS V14.01,2013-03-17 07:40:00,
2013-03-17 02:45:00,10.0,2.2,30.32,NNW,328,0.0,0.0,70,0.00,,,0.00,VWS V14.01,2013-03-17 07:45:00,
2013-03-17 02:50:00,9.9,2.4,30.32,NNW,328,0.0,0.0,71,0.00,,,0.00,VWS V14.01,2013-03-17 07:50:00,
2013-03-17 02:55:00,9.9,2.4,30.32,NNW,328,0.0,1.0,71,0.00,,,0.00,VWS V14.01,2013-03-17 07:55:00,
2013-03-17 03:01:00,9.9,2.4,30.32,NNW,329,0.0,1.0,71,0.00,,,0.00,VWS V14.01,2013-03-17 08:01:00,
2013-03-17 03:06:00,9.9,2.4,30.31,NNW,328,0.0,0.0,71,0.00,,,0.00,VWS V14.01,2013-03-17 08:06:00,
2013-03-17 03:11:00,9.8,2.0,30.31,NNW,328,0.0,0.0,70,0.00,,,0.00,VWS V14.01,2013-03-17 08:11:00,
2013-03-17 03:16:00,9.8,2.3,30.31,NNW,328,0.0,0.0,71,0.00,,,0.00,VWS V14.01,2013-03-17 08:16:00,
2013-03-17 03:21:00,9.7,1.9,30.31,NNW,329,0.0,0.0,70,0.00,,,0.00,VWS V14.01,2013-03-17 08:21:00,
2013-03-17 03:27:00,9.7,1.9,30.31,NNW,328,0.0,3.0,70,0.00,,,0.00,VWS V14.01,2013-03-17 08:27:00,
2013-03-17 03:32:00,9.6,1.8,30.31,NNW,329,0.0,0.0,70,0.00,,,0.00,VWS V14.01,2013-03-17 08:32:00,
2013-03-17 03:37:00,9.6,1.8,30.30,NNW,328,0.0,0.0,70,0.00,,,0.00,VWS V14.01,2013-03-17 08:37:00,
2013-03-17 03:42:00,9.6,2.1,30.30,NNW,330,0.0,3.0,71,0.00,,,0.00,VWS V14.01,2013-03-17 08:42:00,
2013-03-17 03:47:00,9.6,1.8,30.30,NNW,329,0.0,3.0,70,0.00,,,0.00,VWS V14.01,2013-03-17 08:47:00,
2013-03-17 03:52:00,9.6,2.1,30.29,NNW,329,1.0,3.0,71,0.00,,,0.00,VWS V14.01,2013-03-17 08:52:00,
2013-03-17 03:58:00,9.6,1.8,30.29,NNW,330,3.0,3.0,70,0.00,,,0.00,VWS V14.01,2013-03-17 08:58:00,
2013-03-17 04:03:00,9.5,1.7,30.29,NNW,329,2.0,3.0,70,0.00,,,0.00,VWS V14.01,2013-03-17 09:03:00,
2013-03-17 04:08:00,9.5,1.7,30.29,NNW,330,1.0,3.0,70,0.00,,,0.00,VWS V14.01,2013-03-17 09:08:00,
2013-03-17 04:13:00,9.4,1.3,30.29,NNW,330,0.0,3.0,69,0.00,,,0.00,VWS V14.01,2013-03-17 09:13:00,
2013-03-17 04:18:00,9.4,1.6,30.29,NNW,330,0.0,3.0,70,0.00,,,0.00,VWS V14.01,2013-03-17 09:18:00,
2013-03-17 04:23:00,9.3,1.5,30.29,NNW,330,0.0,3.0,70,0.00,,,0.00,VWS V14.01,2013-03-17 09:23:00,
2013-03-17 04:28:00,9.3,1.2,30.29,NNW,330,0.0,3.0,69,0.00,,,0.00,VWS V14.01,2013-03-17 09:28:00,
2013-03-17 04:33:00,9.2,1.4,30.29,NNW,330,2.0,3.0,70,0.00,,,0.00,VWS V14.01,2013-03-17 09:33:00,
2013-03-17 04:38:00,9.2,1.4,30.29,NNW,331,0.0,3.0,70,0.00,,,0.00,VWS V14.01,2013-03-17 09:38:00,
2013-03-17 04:43:00,9.2,1.4,30.29,NNW,330,0.0,3.0,70,0.00,,,0.00,VWS V14.01,2013-03-17 09:43:00,
2013-03-17 04:48:00,9.2,1.4,30.29,NNW,330,0.0,3.0,70,0.00,,,0.00,VWS V14.01,2013-03-17 09:48:00,
2013-03-17 04:53:00,9.2,1.4,30.29,NNW,331,0.0,3.0,70,0.00,,,0.00,VWS V14.01,2013-03-17 09:53:00,
2013-03-17 04:58:00,9.2,1.4,30.29,NNW,330,0.0,3.0,70,0.00,,,0.00,VWS V14.01,2013-03-17 09:58:00,
2013-03-17 05:03:00,9.2,1.4,30.29,NNW,330,0.0,0.0,70,0.00,,,0.00,VWS V14.01,2013-03-17 10:03:00,
2013-03-17 05:09:00,9.2,1.4,30.29,NNW,330,0.0,0.0,70,0.00,,,0.00,VWS V14.01,2013-03-17 10:09:00,
2013-03-17 05:14:00,9.1,1.3,30.29,NNW,330,0.0,0.0,70,0.00,,,0.00,VWS V14.01,2013-03-17 10:14:00,
2013-03-17 05:19:00,9.1,1.6,30.29,NNW,330,0.0,0.0,71,0.00,,,0.00,VWS V14.01,2013-03-17 10:19:00,
2013-03-17 05:24:00,9.1,1.3,30.29,NNW,330,0.0,0.0,70,0.00,,,0.00,VWS V14.01,2013-03-17 10:24:00,
2013-03-17 05:29:00,9.1,1.6,30.29,NNW,330,0.0,0.0,71,0.00,,,0.00,VWS V14.01,2013-03-17 10:29:00,
2013-03-17 05:34:00,9.1,1.6,30.29,NNW,330,0.0,0.0,71,0.00,,,0.00,VWS V14.01,2013-03-17 10:34:00,
2013-03-17 05:39:00,9.0,1.5,30.29,NNW,330,0.0,0.0,71,0.00,,,0.00,VWS V14.01,2013-03-17 10:39:00,
2013-03-17 05:44:00,9.0,1.2,30.29,NNW,331,0.0,0.0,70,0.00,,,0.00,VWS V14.01,2013-03-17 10:44:00,
2013-03-17 05:49:00,9.0,1.5,30.29,NNW,330,0.0,0.0,71,0.00,,,0.00,VWS V14.01,2013-03-17 10:49:00,
2013-03-17 05:54:00,8.9,1.1,30.29,NNW,330,0.0,0.0,70,0.00,,,0.00,VWS V14.01,2013-03-17 10:54:00,
2013-03-17 05:59:00,8.9,1.4,30.29,NNW,330,0.0,0.0,71,0.00,,,0.00,VWS V14.01,2013-03-17 10:59:00,
2013-03-17 06:04:00,8.9,1.4,30.29,NNW,330,0.0,0.0,71,0.00,,,0.00,VWS V14.01,2013-03-17 11:04:00,
2013-03-17 06:09:00,8.8,1.3,30.29,NNW,330,0.0,0.0,71,0.00,,,0.00,VWS V14.01,2013-03-17 11:09:00,
2013-03-17 06:14:00,8.7,1.2,30.29,NNW,330,0.0,1.0,71,0.00,,,0.00,VWS V14.01,2013-03-17 11:14:00,
2013-03-17 06:20:00,8.6,1.1,30.29,NNW,330,0.0,1.0,71,0.00,,,0.00,VWS V14.01,2013-03-17 11:20:00,
2013-03-17 06:25:00,8.6,1.1,30.29,NNW,330,0.0,1.0,71,0.00,,,0.00,VWS V14.01,2013-03-17 11:25:00,
2013-03-17 06:30:00,8.5,1.3,30.28,NNW,330,0.0,1.0,72,0.00,,,0.00,VWS V14.01,2013-03-17 11:30:00,
2013-03-17 06:35:00,8.4,1.2,30.28,NNW,330,0.0,0.0,72,0.00,,,0.00,VWS V14.01,2013-03-17 11:35:00,
2013-03-17 06:40:00,8.3,1.1,30.29,NNW,330,0.0,0.0,72,0.00,,,0.00,VWS V14.01,2013-03-17 11:40:00,
2013-03-17 06:45:00,8.3,1.1,30.29,NNW,330,2.0,2.0,72,0.00,,,0.00,VWS V14.01,2013-03-17 11:45:00,
2013-03-17 06:50:00,8.3,1.1,30.29,NNW,330,0.0,2.0,72,0.00,,,0.00,VWS V14.01,2013-03-17 11:50:00,
2013-03-17 06:55:00,8.3,1.1,30.28,NNW,331,0.0,2.0,72,0.00,,,0.00,VWS V14.01,2013-03-17 11:55:00,
2013-03-17 07:00:00,8.3,1.1,30.28,NNW,330,0.0,2.0,72,0.00,,,0.00,VWS V14.01,2013-03-17 12:00:00,
2013-03-17 07:05:00,8.2,0.8,30.28,NNW,330,0.0,0.0,71,0.00,,,0.00,VWS V14.01,2013-03-17 12:05:00,
2013-03-17 07:10:00,8.3,0.9,30.28,NNW,330,0.0,0.0,71,0.00,,,0.00,VWS V14.01,2013-03-17 12:10:00,
2013-03-17 07:15:00,8.3,0.9,30.28,NNW,331,0.0,0.0,71,0.00,,,0.00,VWS V14.01,2013-03-17 12:15:00,
2013-03-17 07:20:00,8.3,0.9,30.28,NNW,330,0.0,0.0,71,0.00,,,0.00,VWS V14.01,2013-03-17 12:20:00,
2013-03-17 07:25:00,8.3,0.9,30.28,NNW,331,0.0,3.0,71,0.00,,,0.00,VWS V14.01,2013-03-17 12:25:00,
2013-03-17 07:30:00,8.4,0.9,30.28,NNW,331,3.0,3.0,71,0.00,,,0.00,VWS V14.01,2013-03-17 12:30:00,
2013-03-17 07:36:00,8.4,0.6,30.27,NNW,331,2.0,3.0,70,0.00,,,0.00,VWS V14.01,2013-03-17 12:36:00,
2013-03-17 07:41:00,8.4,0.6,30.27,NNW,332,1.0,4.0,70,0.00,,,0.00,VWS V14.01,2013-03-17 12:41:00,
2013-03-17 07:46:00,8.4,0.6,30.27,ENE,77,1.0,7.0,70,0.00,,,0.00,VWS V14.01,2013-03-17 12:46:00,
2013-03-17 07:51:00,8.6,1.1,30.27,East,79,3.0,7.0,71,0.00,,,0.00,VWS V14.01,2013-03-17 12:51:00,
2013-03-17 07:56:00,8.7,0.9,30.27,East,79,2.0,7.0,70,0.00,,,0.00,VWS V14.01,2013-03-17 12:56:00,
2013-03-17 08:02:00,8.9,1.1,30.26,East,79,5.0,5.0,70,0.00,,,0.00,VWS V14.01,2013-03-17 13:02:00,
2013-03-17 08:07:00,9.1,1.3,30.26,ESE,116,2.0,5.0,70,0.00,,,0.00,VWS V14.01,2013-03-17 13:07:00,
2013-03-17 08:12:00,9.4,1.6,30.25,ESE,112,2.0,5.0,70,0.00,,,0.00,VWS V14.01,2013-03-17 13:12:00,
2013-03-17 08:17:00,9.6,1.8,30.26,East,87,0.0,6.0,70,0.00,,,0.00,VWS V14.01,2013-03-17 13:17:00,
2013-03-17 08:22:00,10.0,1.9,30.26,ENE,75,3.0,6.0,69,0.00,,,0.00,VWS V14.01,2013-03-17 13:22:00,
2013-03-17 08:27:00,10.5,2.0,30.26,ESE,111,7.0,9.0,68,0.00,,,0.00,VWS V14.01,2013-03-17 13:27:00,
2013-03-17 08:32:00,10.8,2.0,30.25,East,89,5.0,9.0,67,0.00,,,0.00,VWS V14.01,2013-03-17 13:32:00,
2013-03-17 08:37:00,10.9,1.8,30.26,East,80,2.0,9.0,66,0.00,,,0.00,VWS V14.01,2013-03-17 13:37:00,
2013-03-17 08:42:00,11.2,2.1,30.26,East,87,2.0,9.0,66,0.00,,,0.00,VWS V14.01,2013-03-17 13:42:00,
2013-03-17 08:47:00,11.7,2.2,30.27,East,79,3.0,9.0,65,0.00,,,0.00,VWS V14.01,2013-03-17 13:47:00,
2013-03-17 08:52:00,11.9,2.1,30.27,East,97,3.0,10.0,64,0.00,,,0.00,VWS V14.01,2013-03-17 13:52:00,
2013-03-17 08:57:00,12.2,2.0,30.27,East,90,3.0,10.0,63,0.00,,,0.00,VWS V14.01,2013-03-17 13:57:00,
2013-03-17 09:02:00,12.6,2.4,30.27,East,100,7.0,9.0,63,0.00,,,0.00,VWS V14.01,2013-03-17 14:02:00,
2013-03-17 09:07:00,12.8,2.2,30.27,SSW,210,1.0,12.0,62,0.00,,,0.00,VWS V14.01,2013-03-17 14:07:00,
2013-03-17 09:12:00,12.8,2.2,30.27,East,95,5.0,13.0,62,0.00,,,0.00,VWS V14.01,2013-03-17 14:12:00,
2013-03-17 09:17:00,12.9,2.3,30.27,East,95,8.0,13.0,62,0.00,,,0.00,VWS V14.01,2013-03-17 14:17:00,
2013-03-17 09:22:00,12.8,2.2,30.27,East,81,5.0,13.0,62,0.00,,,0.00,VWS V14.01,2013-03-17 14:22:00,
2013-03-17 09:28:00,12.9,2.7,30.27,East,93,6.0,13.0,63,0.00,,,0.00,VWS V14.01,2013-03-17 14:28:00,
2013-03-17 09:33:00,13.2,3.0,30.27,ENE,68,3.0,6.0,63,0.00,,,0.00,VWS V14.01,2013-03-17 14:33:00,
2013-03-17 09:38:00,13.5,2.9,30.27,ESE,110,3.0,10.0,62,0.00,,,0.00,VWS V14.01,2013-03-17 14:38:00,
2013-03-17 09:43:00,13.7,2.8,30.27,East,83,8.0,11.0,61,0.00,,,0.00,VWS V14.01,2013-03-17 14:43:00,
2013-03-17 09:48:00,13.8,2.8,30.27,ESE,112,4.0,11.0,61,0.00,,,0.00,VWS V14.01,2013-03-17 14:48:00,
2013-03-17 09:53:00,14.1,3.5,30.27,ESE,106,5.0,11.0,62,0.00,,,0.00,VWS V14.01,2013-03-17 14:53:00,
2013-03-17 09:58:00,14.5,3.9,30.27,East,89,8.0,11.0,62,0.00,,,0.00,VWS V14.01,2013-03-17 14:58:00,
2013-03-17 10:03:00,14.6,3.6,30.26,East,89,7.0,10.0,61,0.00,,,0.00,VWS V14.01,2013-03-17 15:03:00,
2013-03-17 10:08:00,14.8,4.2,30.26,East,88,3.0,11.0,62,0.00,,,0.00,VWS V14.01,2013-03-17 15:08:00,
2013-03-17 10:13:00,15.2,4.5,30.26,East,97,8.0,11.0,62,0.00,,,0.00,VWS V14.01,2013-03-17 15:13:00,
2013-03-17 10:18:00,15.3,4.3,30.26,ESE,107,7.0,13.0,61,0.00,,,0.00,VWS V14.01,2013-03-17 15:18:00,
2013-03-17 10:23:00,15.5,4.1,30.26,East,100,8.0,13.0,60,0.00,,,0.00,VWS V14.01,2013-03-17 15:23:00,
2013-03-17 10:29:00,15.2,3.8,30.27,SSE,152,2.0,13.0,60,0.00,,,0.00,VWS V14.01,2013-03-17 15:29:00,
2013-03-17 10:34:00,15.2,4.5,30.26,East,91,7.0,10.0,62,0.00,,,0.00,VWS V14.01,2013-03-17 15:34:00,
2013-03-17 10:39:00,15.5,4.8,30.26,ENE,67,7.0,13.0,62,0.00,,,0.00,VWS V14.01,2013-03-17 15:39:00,
2013-03-17 10:44:00,15.9,4.8,30.26,ENE,70,7.0,13.0,61,0.00,,,0.00,VWS V14.01,2013-03-17 15:44:00,
2013-03-17 10:49:00,16.0,4.9,30.25,East,91,3.0,13.0,61,0.00,,,0.00,VWS V14.01,2013-03-17 15:49:00,
2013-03-17 10:54:00,16.2,5.5,30.25,ESE,104,8.0,13.0,62,0.00,,,0.00,VWS V14.01,2013-03-17 15:54:00,
2013-03-17 10:59:00,16.5,5.4,30.25,ENE,64,8.0,13.0,61,0.00,,,0.00,VWS V14.01,2013-03-17 15:59:00,
2013-03-17 11:04:00,16.5,5.1,30.25,ESE,108,4.0,12.0,60,0.00,,,0.00,VWS V14.01,2013-03-17 16:04:00,
2013-03-17 11:09:00,16.7,6.0,30.25,East,83,2.0,12.0,62,0.00,,,0.00,VWS V14.01,2013-03-17 16:09:00,
2013-03-17 11:14:00,17.3,6.2,30.24,East,91,6.0,12.0,61,0.00,,,0.00,VWS V14.01,2013-03-17 16:14:00,
2013-03-17 11:19:00,17.7,6.2,30.24,East,87,6.0,12.0,60,0.00,,,0.00,VWS V14.01,2013-03-17 16:19:00,
2013-03-17 11:24:00,17.9,6.7,30.24,ESE,110,9.0,12.0,61,0.00,,,0.00,VWS V14.01,2013-03-17 16:24:00,
2013-03-17 11:29:00,18.2,6.3,30.24,East,81,2.0,14.0,59,0.00,,,0.00,VWS V14.01,2013-03-17 16:29:00,
2013-03-17 11:34:00,18.4,6.8,30.24,East,83,10.0,11.0,60,0.00,,,0.00,VWS V14.01,2013-03-17 16:34:00,
2013-03-17 11:40:00,18.7,6.8,30.24,East,83,10.0,15.0,59,0.00,,,0.00,VWS V14.01,2013-03-17 16:40:00,
2013-03-17 11:45:00,19.1,6.8,30.24,East,81,3.0,15.0,58,0.00,,,0.00,VWS V14.01,2013-03-17 16:45:00,
2013-03-17 11:50:00,19.6,8.0,30.23,East,100,5.0,15.0,60,0.00,,,0.00,VWS V14.01,2013-03-17 16:50:00,
2013-03-17 11:55:00,20.3,8.3,30.22,East,87,5.0,15.0,59,0.00,,,0.00,VWS V14.01,2013-03-17 16:55:00,
2013-03-17 12:00:00,20.5,8.1,30.22,ESE,113,9.0,15.0,58,0.00,,,0.00,VWS V14.01,2013-03-17 17:00:00,
2013-03-17 12:05:00,20.4,8.4,30.22,ESE,118,7.0,11.0,59,0.00,,,0.00,VWS V14.01,2013-03-17 17:05:00,
2013-03-17 12:10:00,20.7,8.6,30.22,ESE,106,1.0,12.0,59,0.00,,,0.00,VWS V14.01,2013-03-17 17:10:00,
2013-03-17 12:15:00,20.8,8.0,30.22,SSW,212,4.0,15.0,57,0.00,,,0.00,VWS V14.01,2013-03-17 17:15:00,
2013-03-17 12:20:00,20.6,7.8,30.21,SE,137,2.0,15.0,57,0.00,,,0.00,VWS V14.01,2013-03-17 17:20:00,
2013-03-17 12:25:00,20.7,8.3,30.21,ENE,66,2.0,15.0,58,0.00,,,0.00,VWS V14.01,2013-03-17 17:25:00,
2013-03-17 12:30:00,21.1,8.6,30.21,ESE,102,3.0,15.0,58,0.00,,,0.00,VWS V14.01,2013-03-17 17:30:00,
2013-03-17 12:36:00,21.4,8.9,30.21,ESE,106,5.0,12.0,58,0.00,,,0.00,VWS V14.01,2013-03-17 17:36:00,
2013-03-17 12:41:00,21.6,9.1,30.20,East,84,3.0,12.0,58,0.00,,,0.00,VWS V14.01,2013-03-17 17:41:00,
2013-03-17 12:46:00,21.5,8.2,30.20,East,87,10.0,16.0,56,0.00,,,0.00,VWS V14.01,2013-03-17 17:46:00,
2013-03-17 12:51:00,21.8,9.7,30.20,ENE,73,1.0,16.0,59,0.00,,,0.00,VWS V14.01,2013-03-17 17:51:00,
2013-03-17 12:56:00,22.1,9.6,30.20,East,79,6.0,16.0,58,0.00,,,0.00,VWS V14.01,2013-03-17 17:56:00,
2013-03-17 13:01:00,22.5,9.6,30.20,East,79,7.0,9.0,57,0.00,,,0.00,VWS V14.01,2013-03-17 18:01:00,
2013-03-17 13:06:00,22.7,9.4,30.20,East,98,3.0,15.0,56,0.00,,,0.00,VWS V14.01,2013-03-17 18:06:00,
2013-03-17 13:12:00,22.5,9.2,30.19,ENE,77,7.0,15.0,56,0.00,,,0.00,VWS V14.01,2013-03-17 18:12:00,
2013-03-17 13:17:00,22.5,9.6,30.19,ENE,72,9.0,15.0,57,0.00,,,0.00,VWS V14.01,2013-03-17 18:17:00,
2013-03-17 13:22:00,22.6,10.1,30.18,ESE,114,8.0,15.0,58,0.00,,,0.00,VWS V14.01,2013-03-17 18:22:00,
2013-03-17 13:27:00,22.7,9.8,30.18,East,93,9.0,15.0,57,0.00,,,0.00,VWS V14.01,2013-03-17 18:27:00,
2013-03-17 13:32:00,22.7,9.8,30.18,ESE,102,4.0,13.0,57,0.00,,,0.00,VWS V14.01,2013-03-17 18:32:00,
2013-03-17 13:37:00,23.0,10.4,30.18,SSE,162,8.0,13.0,58,0.00,,,0.00,VWS V14.01,2013-03-17 18:37:00,
2013-03-17 13:42:00,23.0,9.7,30.17,SE,130,7.0,19.0,56,0.00,,,0.00,VWS V14.01,2013-03-17 18:42:00,
2013-03-17 13:47:00,23.0,9.7,30.17,NNE,18,2.0,19.0,56,0.00,,,0.00,VWS V14.01,2013-03-17 18:47:00,
2013-03-17 13:52:00,23.3,9.9,30.16,ESE,103,11.0,19.0,56,0.00,,,0.00,VWS V14.01,2013-03-17 18:52:00,
2013-03-17 13:57:00,23.4,10.4,30.15,ESE,119,7.0,19.0,57,0.00,,,0.00,VWS V14.01,2013-03-17 18:57:00,
2013-03-17 14:02:00,23.8,11.2,30.15,East,89,5.0,7.0,58,0.00,,,0.00,VWS V14.01,2013-03-17 19:02:00,
2013-03-17 14:07:00,24.4,11.4,30.15,East,87,5.0,9.0,57,0.00,,,0.00,VWS V14.01,2013-03-17 19:07:00,
2013-03-17 14:12:00,24.5,11.1,30.14,SW,218,2.0,9.0,56,0.00,,,0.00,VWS V14.01,2013-03-17 19:12:00,
2013-03-17 14:17:00,24.6,11.2,30.14,East,89,3.0,9.0,56,0.00,,,0.00,VWS V14.01,2013-03-17 19:17:00,
2013-03-17 14:23:00,24.5,10.7,30.14,ESE,106,4.0,12.0,55,0.00,,,0.00,VWS V14.01,2013-03-17 19:23:00,
2013-03-17 14:28:00,24.7,11.6,30.13,East,83,6.0,12.0,57,0.00,,,0.00,VWS V14.01,2013-03-17 19:28:00,
2013-03-17 14:33:00,25.1,11.6,30.13,East,89,3.0,9.0,56,0.00,,,0.00,VWS V14.01,2013-03-17 19:33:00,
2013-03-17 14:38:00,25.2,12.1,30.12,SE,129,6.0,11.0,57,0.00,,,0.00,VWS V14.01,2013-03-17 19:38:00,
2013-03-17 14:43:00,25.5,11.6,30.11,East,84,2.0,12.0,55,0.00,,,0.00,VWS V14.01,2013-03-17 19:43:00,
2013-03-17 14:48:00,26.0,12.1,30.11,ESE,108,5.0,12.0,55,0.00,,,0.00,VWS V14.01,2013-03-17 19:48:00,
2013-03-17 14:53:00,26.2,13.1,30.11,ENE,77,7.0,12.0,57,0.00,,,0.00,VWS V14.01,2013-03-17 19:53:00,
2013-03-17 14:58:00,26.1,12.6,30.10,ENE,66,3.0,12.0,56,0.00,,,0.00,VWS V14.01,2013-03-17 19:58:00,
2013-03-17 15:03:00,26.3,12.8,30.09,East,80,2.0,11.0,56,0.00,,,0.00,VWS V14.01,2013-03-17 20:03:00,
2013-03-17 15:08:00,26.2,12.2,30.09,ESE,106,7.0,14.0,55,0.00,,,0.00,VWS V14.01,2013-03-17 20:08:00,
2013-03-17 15:13:00,26.0,12.5,30.09,East,97,11.0,14.0,56,0.00,,,0.00,VWS V14.01,2013-03-17 20:13:00,
2013-03-17 15:18:00,26.0,11.6,30.09,ENE,77,11.0,14.0,54,0.00,,,0.00,VWS V14.01,2013-03-17 20:18:00,
2013-03-17 15:23:00,25.9,12.4,30.08,East,82,2.0,14.0,56,0.00,,,0.00,VWS V14.01,2013-03-17 20:23:00,
2013-03-17 15:28:00,25.9,12.0,30.07,ESE,103,11.0,14.0,55,0.00,,,0.00,VWS V14.01,2013-03-17 20:28:00,
2013-03-17 15:33:00,25.5,11.6,30.07,East,96,3.0,14.0,55,0.00,,,0.00,VWS V14.01,2013-03-17 20:33:00,
2013-03-17 15:38:00,25.4,12.3,30.07,East,84,0.0,14.0,57,0.00,,,0.00,VWS V14.01,2013-03-17 20:38:00,
2013-03-17 15:43:00,25.7,12.6,30.07,East,90,6.0,14.0,57,0.00,,,0.00,VWS V14.01,2013-03-17 20:43:00,
2013-03-17 15:49:00,25.8,12.3,30.07,South,171,3.0,14.0,56,0.00,,,0.00,VWS V14.01,2013-03-17 20:49:00,
2013-03-17 15:54:00,25.7,12.6,30.07,East,90,2.0,14.0,57,0.00,,,0.00,VWS V14.01,2013-03-17 20:54:00,
2013-03-17 15:59:00,25.7,12.6,30.07,East,83,14.0,14.0,57,0.00,,,0.00,VWS V14.01,2013-03-17 20:59:00,
2013-03-17 16:04:00,25.4,12.3,30.06,ESE,112,9.0,15.0,57,0.00,,,0.00,VWS V14.01,2013-03-17 21:04:00,
2013-03-17 16:09:00,25.3,12.6,30.07,East,87,5.0,15.0,58,0.00,,,0.00,VWS V14.01,2013-03-17 21:09:00,
2013-03-17 16:14:00,25.3,12.6,30.07,ESE,102,7.0,15.0,58,0.00,,,0.00,VWS V14.01,2013-03-17 21:14:00,
2013-03-17 16:19:00,25.3,13.0,30.07,ESE,118,5.0,15.0,59,0.00,,,0.00,VWS V14.01,2013-03-17 21:19:00,
2013-03-17 16:24:00,25.3,13.4,30.07,ENE,68,8.0,15.0,60,0.00,,,0.00,VWS V14.01,2013-03-17 21:24:00,
2013-03-17 16:29:00,25.5,13.6,30.07,ENE,73,5.0,15.0,60,0.00,,,0.00,VWS V14.01,2013-03-17 21:29:00,
2013-03-17 16:34:00,25.6,13.7,30.07,East,97,6.0,10.0,60,0.00,,,0.00,VWS V14.01,2013-03-17 21:34:00,
2013-03-17 16:39:00,25.9,13.6,30.06,East,90,2.0,14.0,59,0.00,,,0.00,VWS V14.01,2013-03-17 21:39:00,
2013-03-17 16:44:00,26.0,14.0,30.06,ENE,75,5.0,14.0,60,0.00,,,0.00,VWS V14.01,2013-03-17 21:44:00,
2013-03-17 16:49:00,26.2,13.8,30.06,East,91,5.0,14.0,59,0.00,,,0.00,VWS V14.01,2013-03-17 21:49:00,
2013-03-17 16:54:00,26.1,13.8,30.06,ENE,70,4.0,14.0,59,0.00,,,0.00,VWS V14.01,2013-03-17 21:54:00,
2013-03-17 16:59:00,26.1,14.1,30.06,ENE,77,3.0,14.0,60,0.00,,,0.00,VWS V14.01,2013-03-17 21:59:00,
2013-03-17 17:04:00,26.2,13.8,30.06,East,82,6.0,11.0,59,0.00,,,0.00,VWS V14.01,2013-03-17 22:04:00,
2013-03-17 17:09:00,26.1,13.8,30.06,ESE,111,5.0,11.0,59,0.00,,,0.00,VWS V14.01,2013-03-17 22:09:00,
2013-03-17 17:14:00,26.0,13.6,30.05,East,88,6.0,11.0,59,0.00,,,0.00,VWS V14.01,2013-03-17 22:14:00,
2013-03-17 17:19:00,25.8,13.5,30.05,ESE,108,5.0,13.0,59,0.00,,,0.00,VWS V14.01,2013-03-17 22:19:00,
2013-03-17 17:25:00,25.9,13.9,30.04,East,89,7.0,13.0,60,0.00,,,0.00,VWS V14.01,2013-03-17 22:25:00,
2013-03-17 17:30:00,26.1,14.5,30.04,ENE,60,8.0,13.0,61,0.00,,,0.00,VWS V14.01,2013-03-17 22:30:00,
2013-03-17 17:35:00,26.4,14.4,30.04,ESE,102,5.0,11.0,60,0.00,,,0.00,VWS V14.01,2013-03-17 22:35:00,
2013-03-17 17:40:00,26.5,14.5,30.04,ESE,105,5.0,14.0,60,0.00,,,0.00,VWS V14.01,2013-03-17 22:40:00,
2013-03-17 17:45:00,26.5,14.1,30.04,East,100,7.0,14.0,59,0.00,,,0.00,VWS V14.01,2013-03-17 22:45:00,
2013-03-17 17:50:00,26.3,13.9,30.04,ENE,62,3.0,14.0,59,0.00,,,0.00,VWS V14.01,2013-03-17 22:50:00,
2013-03-17 17:55:00,26.2,13.8,30.04,ESE,119,11.0,14.0,59,0.00,,,0.00,VWS V14.01,2013-03-17 22:55:00,
2013-03-17 18:00:00,26.2,14.2,30.04,East,91,7.0,14.0,60,0.00,,,0.00,VWS V14.01,2013-03-17 23:00:00,
2013-03-17 18:05:00,26.3,14.3,30.03,East,89,9.0,11.0,60,0.00,,,0.00,VWS V14.01,2013-03-17 23:05:00,
2013-03-17 18:10:00,26.3,14.3,30.02,SSE,147,4.0,11.0,60,0.00,,,0.00,VWS V14.01,2013-03-17 23:10:00,
2013-03-17 18:15:00,26.3,14.7,30.02,East,99,3.0,11.0,61,0.00,,,0.00,VWS V14.01,2013-03-17 23:15:00,
2013-03-17 18:20:00,26.3,14.7,30.02,SE,132,7.0,11.0,61,0.00,,,0.00,VWS V14.01,2013-03-17 23:20:00,
2013-03-17 18:25:00,26.1,14.5,30.01,East,88,8.0,12.0,61,0.00,,,0.00,VWS V14.01,2013-03-17 23:25:00,
2013-03-17 18:30:00,26.1,14.9,30.01,East,83,8.0,13.0,62,0.00,,,0.00,VWS V14.01,2013-03-17 23:30:00,
2013-03-17 18:36:00,26.0,14.4,30.01,East,85,8.0,11.0,61,0.00,,,0.00,VWS V14.01,2013-03-17 23:36:00,
2013-03-17 18:41:00,26.0,14.4,30.01,East,95,10.0,13.0,61,0.00,,,0.00,VWS V14.01,2013-03-17 23:41:00,
2013-03-17 18:46:00,26.0,14.4,30.01,ESE,114,11.0,14.0,61,0.00,,,0.00,VWS V14.01,2013-03-17 23:46:00,
2013-03-17 18:51:00,26.1,14.5,30.01,ENE,71,4.0,14.0,61,0.00,,,0.00,VWS V14.01,2013-03-17 23:51:00,
2013-03-17 18:56:00,26.1,14.5,30.01,East,98,7.0,14.0,61,0.00,,,0.00,VWS V14.01,2013-03-17 23:56:00,
2013-03-17 19:01:00,26.0,14.8,30.00,East,87,3.0,14.0,62,0.00,,,0.00,VWS V14.01,2013-03-18 00:01:00,
2013-03-17 19:06:00,25.9,14.7,30.00,SE,131,7.0,10.0,62,0.00,,,0.00,VWS V14.01,2013-03-18 00:06:00,
2013-03-17 19:12:00,25.9,14.7,30.00,East,96,5.0,14.0,62,0.00,,,0.00,VWS V14.01,2013-03-18 00:12:00,
2013-03-17 19:17:00,25.9,14.7,30.00,ENE,77,5.0,14.0,62,0.00,,,0.00,VWS V14.01,2013-03-18 00:17:00,
2013-03-17 19:22:00,25.9,15.1,30.00,ESE,123,7.0,14.0,63,0.00,,,0.00,VWS V14.01,2013-03-18 00:22:00,
2013-03-17 19:27:00,25.9,15.1,30.00,East,90,5.0,14.0,63,0.00,,,0.00,VWS V14.01,2013-03-18 00:27:00,
2013-03-17 19:32:00,26.0,15.1,30.00,SE,141,3.0,7.0,63,0.00,,,0.00,VWS V14.01,2013-03-18 00:32:00,
2013-03-17 19:37:00,26.0,15.1,30.00,ESE,118,3.0,12.0,63,0.00,,,0.00,VWS V14.01,2013-03-18 00:37:00,
2013-03-17 19:42:00,26.1,15.6,30.00,East,93,5.0,12.0,64,0.00,,,0.00,VWS V14.01,2013-03-18 00:42:00,
2013-03-17 19:47:00,26.1,15.6,29.99,ESE,102,8.0,12.0,64,0.00,,,0.00,VWS V14.01,2013-03-18 00:47:00,
2013-03-17 19:52:00,26.1,16.0,29.99,ESE,102,2.0,12.0,65,0.00,,,0.00,VWS V14.01,2013-03-18 00:52:00,
2013-03-17 19:57:00,26.1,16.0,29.98,SE,130,5.0,12.0,65,0.00,,,0.00,VWS V14.01,2013-03-18 00:57:00,
2013-03-17 20:03:00,26.0,15.9,29.98,ENE,73,10.0,11.0,65,0.00,,,0.00,VWS V14.01,2013-03-18 01:03:00,
2013-03-17 20:08:00,26.0,15.9,29.97,ENE,73,5.0,12.0,65,0.00,,,0.00,VWS V14.01,2013-03-18 01:08:00,
2013-03-17 20:13:00,26.0,15.9,29.97,ESE,107,4.0,12.0,65,0.00,,,0.00,VWS V14.01,2013-03-18 01:13:00,
2013-03-17 20:18:00,26.0,15.9,29.97,SE,143,2.0,13.0,65,0.00,,,0.00,VWS V14.01,2013-03-18 01:18:00,
2013-03-17 20:23:00,26.1,16.0,29.97,East,91,7.0,13.0,65,0.00,,,0.00,VWS V14.01,2013-03-18 01:23:00,
2013-03-17 20:28:00,26.1,16.0,29.97,East,90,3.0,13.0,65,0.00,,,0.00,VWS V14.01,2013-03-18 01:28:00,
2013-03-17 20:33:00,26.1,16.3,29.97,ESE,110,8.0,10.0,66,0.00,,,0.00,VWS V14.01,2013-03-18 01:33:00,
2013-03-17 20:38:00,26.1,16.3,29.97,ENE,68,4.0,13.0,66,0.00,,,0.00,VWS V14.01,2013-03-18 01:38:00,
2013-03-17 20:43:00,26.2,16.1,29.97,East,79,5.0,13.0,65,0.00,,,0.00,VWS V14.01,2013-03-18 01:43:00,
2013-03-17 20:48:00,26.1,16.3,29.97,ESE,116,3.0,13.0,66,0.00,,,0.00,VWS V14.01,2013-03-18 01:48:00,
2013-03-17 20:53:00,26.1,16.3,29.97,East,83,5.0,13.0,66,0.00,,,0.00,VWS V14.01,2013-03-18 01:53:00,
2013-03-17 20:58:00,26.1,16.3,29.97,East,91,5.0,13.0,66,0.00,,,0.00,VWS V14.01,2013-03-18 01:58:00,
2013-03-17 21:03:00,26.0,15.9,29.98,East,89,2.0,9.0,65,0.00,,,0.00,VWS V14.01,2013-03-18 02:03:00,
2013-03-17 21:08:00,26.0,16.2,29.97,ESE,104,2.0,9.0,66,0.00,,,0.00,VWS V14.01,2013-03-18 02:08:00,
2013-03-17 21:13:00,26.0,15.9,29.97,East,81,1.0,9.0,65,0.00,,,0.00,VWS V14.01,2013-03-18 02:13:00,
2013-03-17 21:18:00,26.0,16.2,29.97,ESE,108,1.0,9.0,66,0.00,,,0.00,VWS V14.01,2013-03-18 02:18:00,
2013-03-17 21:23:00,26.1,16.3,29.97,ESE,118,3.0,9.0,66,0.00,,,0.00,VWS V14.01,2013-03-18 02:23:00,
2013-03-17 21:29:00,26.1,16.3,29.97,ESE,120,4.0,9.0,66,0.00,,,0.00,VWS V14.01,2013-03-18 02:29:00,
2013-03-17 21:34:00,26.1,16.3,29.97,ESE,116,4.0,8.0,66,0.00,,,0.00,VWS V14.01,2013-03-18 02:34:00,
2013-03-17 21:39:00,26.1,16.0,29.96,East,95,3.0,9.0,65,0.00,,,0.00,VWS V14.01,2013-03-18 02:39:00,
2013-03-17 21:44:00,26.1,16.3,29.96,ESE,122,4.0,9.0,66,0.00,,,0.00,VWS V14.01,2013-03-18 02:44:00,
2013-03-17 21:49:00,26.1,16.3,29.96,ESE,105,0.0,9.0,66,0.00,,,0.00,VWS V14.01,2013-03-18 02:49:00,
2013-03-17 21:54:00,26.1,16.3,29.96,East,95,6.0,9.0,66,0.00,,,0.00,VWS V14.01,2013-03-18 02:54:00,
2013-03-17 21:59:00,26.1,16.3,29.96,ESE,112,1.0,10.0,66,0.00,,,0.00,VWS V14.01,2013-03-18 02:59:00,
2013-03-17 22:04:00,26.1,16.3,29.96,ESE,104,5.0,7.0,66,0.00,,,0.00,VWS V14.01,2013-03-18 03:04:00,
2013-03-17 22:09:00,26.1,16.3,29.96,East,89,5.0,7.0,66,0.00,,,0.00,VWS V14.01,2013-03-18 03:09:00,
2013-03-17 22:14:00,26.1,16.7,29.96,ESE,113,5.0,7.0,67,0.00,,,0.00,VWS V14.01,2013-03-18 03:14:00,
2013-03-17 22:19:00,26.1,16.7,29.95,East,99,2.0,7.0,67,0.00,,,0.00,VWS V14.01,2013-03-18 03:19:00,
2013-03-17 22:24:00,26.1,16.7,29.96,ESE,116,0.0,8.0,67,0.00,,,0.00,VWS V14.01,2013-03-18 03:24:00,
2013-03-17 22:30:00,26.1,17.0,29.96,East,89,3.0,8.0,68,0.00,,,0.00,VWS V14.01,2013-03-18 03:30:00,
2013-03-17 22:35:00,26.2,17.4,29.96,ESE,112,0.0,8.0,69,0.00,,,0.00,VWS V14.01,2013-03-18 03:35:00,
2013-03-17 22:40:00,26.3,18.2,29.95,East,95,7.0,10.0,71,0.00,,,0.00,VWS V14.01,2013-03-18 03:40:00,
2013-03-17 22:45:00,26.5,18.7,29.95,NE,43,3.0,11.0,72,0.00,,,0.00,VWS V14.01,2013-03-18 03:45:00,
2013-03-17 22:50:00,26.6,19.1,29.95,SSW,202,4.0,11.0,73,0.00,,,0.00,VWS V14.01,2013-03-18 03:50:00,
2013-03-17 22:55:00,26.7,19.5,29.95,ESE,112,7.0,12.0,74,0.00,,,0.00,VWS V14.01,2013-03-18 03:55:00,
2013-03-17 23:00:00,26.9,19.7,29.95,East,92,7.0,12.0,74,0.00,,,0.00,VWS V14.01,2013-03-18 04:00:00,
2013-03-17 23:05:00,26.9,20.0,29.95,ENE,62,9.0,11.0,75,0.00,,,0.00,VWS V14.01,2013-03-18 04:05:00,
2013-03-17 23:10:00,26.9,20.0,29.94,East,88,7.0,11.0,75,0.00,,,0.00,VWS V14.01,2013-03-18 04:10:00,
2013-03-17 23:16:00,26.9,20.0,29.94,ESE,113,5.0,11.0,75,0.00,,,0.00,VWS V14.01,2013-03-18 04:16:00,
2013-03-17 23:21:00,27.0,20.5,29.94,ESE,102,5.0,11.0,76,0.00,,,0.00,VWS V14.01,2013-03-18 04:21:00,
2013-03-17 23:26:00,27.0,20.5,29.94,NW,326,1.0,12.0,76,0.00,,,0.00,VWS V14.01,2013-03-18 04:26:00,
2013-03-17 23:31:00,27.0,20.5,29.93,ESE,106,2.0,7.0,76,0.00,,,0.00,VWS V14.01,2013-03-18 04:31:00,
2013-03-17 23:37:00,27.0,20.5,29.93,East,94,0.0,10.0,76,0.00,,,0.00,VWS V14.01,2013-03-18 04:37:00,
2013-03-17 23:42:00,27.1,20.9,29.93,East,87,0.0,11.0,77,0.00,,,0.00,VWS V14.01,2013-03-18 04:42:00,
2013-03-17 23:47:00,27.1,20.5,29.92,ESE,104,11.0,13.0,76,0.00,,,0.00,VWS V14.01,2013-03-18 04:47:00,
2013-03-17 23:52:00,27.1,20.9,29.92,SE,129,4.0,13.0,77,0.00,,,0.00,VWS V14.01,2013-03-18 04:52:00,
2013-03-17 23:57:00,27.2,21.0,29.92,East,87,5.0,13.0,77,0.00,,,0.00,VWS V14.01,2013-03-18 04:57:00,